GW0388 Weather Reports


time (UTC)temp
C
wind
direction
speed
KPH
gust
KPH
rain 1hr
cm
rain 24hr
cm
rain mn
cm
humidity
%
barometer
mb
20260507080056 11 355 1.6 14.5 0.00 0.00 0.00 75 1021.3
20260507074558 11 344 1.6 8.0 0.00 0.00 0.00 75 1021.1
20260507073103 12 334 1.6 8.0 0.00 0.00 0.00 76 1021.2
20260507071554 11 339 3.2 11.3 0.00 0.00 0.00 77 1021.2
20260507070101 12 0 3.2 12.9 0.00 0.00 0.00 77 1021.1
20260507064555 12 40 3.2 12.9 0.00 0.00 0.00 78 1021.1
20260507063057 12 56 6.4 16.1 0.00 0.00 0.00 79 1021.1
20260507061555 12 38 4.8 14.5 0.00 0.00 0.00 80 1021.2
20260507060055 12 11 3.2 8.0 0.00 0.00 0.00 80 1021.2
20260507054552 12 31 3.2 8.0 0.00 0.00 0.00 80 1021.1
20260507053102 12 328 4.8 12.9 0.00 0.00 0.00 80 1021.0
20260507051549 12 14 3.2 16.1 0.00 0.00 0.00 80 1021.0
20260507050053 12 40 3.2 9.7 0.00 0.00 0.00 79 1020.9
20260507044606 13 329 4.8 12.9 0.00 0.00 0.00 78 1020.9
20260507043053 13 352 3.2 14.5 0.00 0.00 0.00 77 1020.9
20260507041553 13 82 6.4 19.3 0.00 0.00 0.00 75 1020.8
20260507040051 13 331 4.8 14.5 0.00 0.00 0.00 75 1020.8
20260507034601 14 44 4.8 17.7 0.00 0.00 0.00 74 1020.6
20260507033102 14 5 6.4 22.5 0.00 0.00 0.00 73 1020.3
20260507031559 15 53 8.0 19.3 0.00 0.00 0.00 72 1020.1
20260507030107 15 5 4.8 17.7 0.00 0.00 0.00 71 1020.0
20260507024606 16 317 6.4 16.1 0.00 0.00 0.00 70 1019.9
20260507023052 16 47 6.4 16.1 0.00 0.00 0.00 70 1019.8
20260507021555 17 32 4.8 17.7 0.00 0.00 0.00 68 1019.7
20260507014557 18 320 6.4 19.3 0.00 0.00 0.00 66 1019.7
20260507013102 18 333 4.8 17.7 0.00 0.00 0.00 66 1019.8
20260507011557 19 5 6.4 19.3 0.00 0.00 0.00 65 1019.7
20260507010101 19 16 9.7 17.7 0.00 0.00 0.00 66 1019.8
20260507004556 19 29 4.8 16.1 0.00 0.00 0.00 68 1019.6
20260507003101 19 329 4.8 19.3 0.00 0.00 0.00 68 1019.6
20260507001556 19 29 6.4 14.5 0.00 0.00 0.00 66 1019.5
20260507000054 20 55 4.8 14.5 0.00 0.00 0.00 64 1019.6
20260506234606 20 344 4.8 17.7 0.00 0.00 0.00 66 1019.5
20260506233057 20 80 4.8 14.5 0.00 0.00 0.00 68 1019.5
20260506231556 20 53 4.8 12.9 0.00 0.00 0.00 69 1019.5
20260506224554 20 340 3.2 11.3 0.00 0.00 0.00 64 1019.6
20260506223053 21 48 3.2 8.0 0.00 0.00 0.00 64 1019.7
20260506221558 20 0 4.8 16.1 0.00 0.00 0.00 65 1019.8
20260506220057 20 16 1.6 12.9 0.00 0.00 0.00 65 1019.8
20260506214558 20 304 4.8 11.3 0.00 0.00 0.00 66 1019.8
20260506213101 21 0 0.0 9.7 0.00 0.00 0.00 64 1019.8
20260506211553 21 145 0.0 11.3 0.00 0.00 0.00 64 1019.9
20260506210058 20 322 1.6 11.3 0.00 0.00 0.00 66 1020.0
20260506204559 20 101 0.0 6.4 0.00 0.00 0.00 66 1020.1
20260506203057 19 165 0.0 6.4 0.00 0.00 0.00 68 1020.2
20260506201558 18 71 6.4 9.7 0.00 0.00 0.00 69 1020.0
20260506200052 18 195 1.6 6.4 0.00 0.00 0.00 71 1020.0
20260506194555 18 48 1.6 8.0 0.00 0.00 0.00 69 1020.3
20260506193054 18 0 1.6 16.1 0.00 0.00 0.00 70 1020.4
20260506191555 18 92 4.8 14.5 0.00 0.00 0.00 69 1020.4
20260506190055 18 0 3.2 12.9 0.00 0.00 0.00 70 1020.4
20260506184552 18 352 1.6 9.7 0.00 0.00 0.00 71 1020.3
20260506183056 17 0 1.6 9.7 0.00 0.00 0.00 74 1020.4
20260506181552 17 118 3.2 12.9 0.00 0.00 0.00 75 1020.5
20260506180051 16 193 6.4 17.7 0.00 0.00 0.00 77 1020.2
20260506174555 15 0 1.6 8.0 0.00 0.00 0.00 80 1020.4
20260506173124 15 0 0.0 8.0 0.00 0.00 0.00 80 1020.5
20260506171601 15 186 0.0 4.8 0.00 0.00 0.00 80 1020.2
20260506170050 15 0 0.0 8.0 0.00 0.00 0.00 80 1020.3
20260506164559 15 206 0.0 8.0 0.00 0.00 0.00 81 1020.4
20260506163104 14 0 0.0 1.6 0.00 0.00 0.00 82 1020.3
20260506161627 14 0 0.0 3.2 0.00 0.00 0.00 81 1020.3
20260506160051 14 0 0.0 1.6 0.00 0.00 0.00 81 1020.3
20260506154600 13 0 0.0 3.2 0.00 0.00 0.00 81 1020.0
20260506153058 13 0 0.0 3.2 0.00 0.00 0.00 83 1019.8
20260506151552 13 0 1.6 4.8 0.00 0.00 0.00 83 1019.7
20260506150049 13 0 0.0 4.8 0.00 0.00 0.00 85 1019.8
20260506144552 12 19 1.6 11.3 0.00 0.00 0.00 85 1020.3
20260506143051 12 360 3.2 8.0 0.00 0.00 0.00 86 1020.2
20260506141555 12 338 0.0 8.0 0.00 0.00 0.00 86 1020.0
20260506140055 12 342 3.2 8.0 0.00 0.00 0.00 86 1019.7
20260506134556 12 23 1.6 9.7 0.00 0.00 0.00 86 1019.1
20260506133057 12 5 1.6 6.4 0.00 0.00 0.00 87 1019.2
20260506131602 12 27 3.2 8.0 0.00 0.00 0.00 87 1019.1
20260506130121 12 5 3.2 8.0 0.00 0.00 0.00 87 1019.0
20260506124558 12 13 3.2 6.4 0.00 0.00 0.00 87 1018.8
20260506123054 12 352 1.6 6.4 0.00 0.00 0.00 86 1018.7
20260506121556 12 62 1.6 8.0 0.00 0.00 0.00 86 1018.5
20260506120108 13 47 3.2 6.4 0.00 0.00 0.00 85 1018.5
20260506114554 13 59 0.0 4.8 0.00 0.00 0.00 85 1018.4
20260506113058 13 0 1.6 6.4 0.00 0.00 0.00 85 1018.5
20260506111553 13 331 1.6 6.4 0.00 0.00 0.00 85 1018.4
20260506110101 13 23 1.6 4.8 0.00 0.00 0.00 85 1018.3
20260506104557 13 0 0.0 4.8 0.00 0.00 0.00 86 1018.0
20260506103058 13 0 1.6 4.8 0.00 0.00 0.00 85 1017.9
20260506101559 13 330 0.0 4.8 0.00 0.00 0.00 85 1017.7
20260506100114 13 0 0.0 3.2 0.00 0.00 0.00 85 1017.6
20260506094552 13 0 0.0 1.6 0.00 0.00 0.00 85 1017.4
20260506093053 13 0 0.0 1.6 0.00 0.00 0.00 85 1017.4
20260506091556 13 0 0.0 0.0 0.00 0.00 0.00 85 1017.3
20260506090052 13 0 0.0 3.2 0.00 0.00 0.00 84 1017.3
20260506084620 13 0 0.0 4.8 0.00 0.00 0.00 84 1017.3
20260506083051 14 0 0.0 4.8 0.00 0.00 0.00 84 1017.3
20260506081556 14 0 0.0 4.8 0.00 0.00 0.00 84 1017.2